When you browse on this site, cookies collect data to enhance your experience and personalize the content and advertising you see.
Visit our Privacy Policy to learn more. By continuing to use the site, you agree to this use of cookies and data.
  • In Österreich
  • Länderverzeichnis
  • Für 7 Tage
  • Wassertemperatur
  • Satellitenkarten
  • Wetterkarte
  • News
  • Widgets
  • user-avatar
    Anmelden

    Stündliche Wetter Río Gallegos

    Heute, 18 Januar, Freitag

    Zeit Temperatur Niederschläge Wind Luftdruck Luftfeuchtigkeit
    00:00 +11°C° 0 mm 9 m/S 761 mmHg 62%
    01:00 +11°C° 0 mm 9 m/S 761 mmHg 63%
    02:00 +11°C° 0 mm 8 m/S 761 mmHg 65%
    03:00 +10°C° 0 mm 7 m/S 761 mmHg 66%
    04:00 +10°C° 0 mm 6 m/S 761 mmHg 68%
    05:00 +11°C° 0 mm 6 m/S 760 mmHg 63%
    06:00 +12°C° 0 mm 7 m/S 760 mmHg 58%
    07:00 +14°C° 0 mm 7 m/S 760 mmHg 54%
    08:00 +16°C° 0 mm 7 m/S 760 mmHg 49%
    09:00 +17°C° 0 mm 6 m/S 759 mmHg 44%
    10:00 +20°C° 0 mm 6 m/S 759 mmHg 39%
    11:00 +21°C° 0 mm 6 m/S 758 mmHg 38%
    12:00 +21°C° 0 mm 5 m/S 758 mmHg 36%
    13:00 +22°C° 0 mm 5 m/S 757 mmHg 35%
    14:00 +22°C° 0 mm 5 m/S 757 mmHg 37%
    15:00 +21°C° 0 mm 5 m/S 756 mmHg 39%
    16:00 +21°C° 0 mm 5 m/S 756 mmHg 41%
    17:00 +21°C° 0 mm 4 m/S 755 mmHg 42%
    18:00 +21°C° 0 mm 4 m/S 755 mmHg 43%
    19:00 +21°C° 0 mm 4 m/S 755 mmHg 45%
    20:00 +20°C° 0.2 mm 4 m/S 754 mmHg 49%
    21:00 +19°C° 0.2 mm 5 m/S 754 mmHg 54%
    22:00 +19°C° 0.2 mm 5 m/S 754 mmHg 59%
    23:00 +17°C° 0.2 mm 5 m/S 753 mmHg 62%

    Morgen, 19 Januar, Samstag

    Zeit Temperatur Niederschläge Wind Luftdruck Luftfeuchtigkeit
    00:00 +17°C° 0.2 mm 5 m/S 752 mmHg 64%
    01:00 +18°C° 0.2 mm 4 m/S 752 mmHg 67%
    02:00 +18°C° 0 mm 4 m/S 751 mmHg 64%
    03:00 +17°C° 0 mm 4 m/S 750 mmHg 62%
    04:00 +17°C° 0 mm 4 m/S 749 mmHg 59%
    05:00 +17°C° 0 mm 4 m/S 749 mmHg 58%
    06:00 +18°C° 0 mm 3 m/S 748 mmHg 57%
    07:00 +18°C° 0 mm 3 m/S 748 mmHg 57%
    08:00 +19°C° 0.3 mm 4 m/S 748 mmHg 54%
    09:00 +19°C° 0.3 mm 6 m/S 747 mmHg 52%
    10:00 +20°C° 0.3 mm 7 m/S 747 mmHg 50%
    11:00 +20°C° 0 mm 8 m/S 747 mmHg 48%
    12:00 +19°C° 0 mm 9 m/S 747 mmHg 47%
    13:00 +21°C° 0 mm 10 m/S 747 mmHg 46%
    14:00 +19°C° 0 mm 10 m/S 747 mmHg 47%
    15:00 +19°C° 0 mm 10 m/S 747 mmHg 48%
    16:00 +18°C° 0 mm 10 m/S 747 mmHg 50%
    17:00 +17°C° 0.1 mm 10 m/S 748 mmHg 51%
    18:00 +16°C° 0.1 mm 9 m/S 748 mmHg 52%
    19:00 +16°C° 0.1 mm 9 m/S 748 mmHg 54%
    20:00 +15°C° 0.1 mm 8 m/S 749 mmHg 56%
    21:00 +14°C° 0.1 mm 7 m/S 749 mmHg 59%
    22:00 +13°C° 0.1 mm 6 m/S 749 mmHg 61%
    23:00 +11°C° 0.5 mm 6 m/S 749 mmHg 64%

    übermorgen, 20 Januar, Sonntag

    Zeit Temperatur Niederschläge Wind Luftdruck Luftfeuchtigkeit
    00:00 +10°C° 0.5 mm 6 m/S 749 mmHg 66%
    01:00 +10°C° 0.5 mm 5 m/S 749 mmHg 69%
    02:00 +9°C° 0.9 mm 5 m/S 749 mmHg 70%
    03:00 +9°C° 0.9 mm 5 m/S 749 mmHg 71%
    04:00 +8°C° 0.9 mm 5 m/S 749 mmHg 72%
    05:00 +8°C° 1.4 mm 4 m/S 749 mmHg 73%
    06:00 +8°C° 1.4 mm 2 m/S 749 mmHg 75%
    07:00 +9°C° 1.4 mm 1 m/S 750 mmHg 76%
    08:00 +9°C° 0.5 mm 1 m/S 750 mmHg 76%
    09:00 +9°C° 0.5 mm 1 m/S 750 mmHg 76%
    10:00 +8°C° 0.5 mm 2 m/S 750 mmHg 77%
    11:00 +8°C° 0.2 mm 2 m/S 750 mmHg 73%
    12:00 +9°C° 0.2 mm 2 m/S 750 mmHg 69%
    13:00 +9°C° 0.2 mm 2 m/S 750 mmHg 65%
    14:00 +10°C° 0 mm 3 m/S 750 mmHg 62%
    15:00 +11°C° 0 mm 3 m/S 751 mmHg 59%
    16:00 +11°C° 0 mm 3 m/S 751 mmHg 56%
    17:00 +11°C° 0.1 mm 4 m/S 751 mmHg 55%
    18:00 +12°C° 0.1 mm 5 m/S 752 mmHg 53%
    19:00 +11°C° 0.1 mm 6 m/S 752 mmHg 52%
    20:00 +10°C° 0 mm 5 m/S 752 mmHg 55%
    21:00 +9°C° 0 mm 5 m/S 752 mmHg 59%
    22:00 +8°C° 0 mm 4 m/S 753 mmHg 62%
    23:00 +9°C° 0 mm 3 m/S 752 mmHg 63%

    21 Januar, Montag

    Zeit Temperatur Niederschläge Wind Luftdruck Luftfeuchtigkeit
    00:00 +8°C° 0 mm 3 m/S 752 mmHg 65%
    01:00 +8°C° 0 mm 2 m/S 752 mmHg 67%
    02:00 +8°C° 0 mm 3 m/S 751 mmHg 68%
    03:00 +7°C° 0 mm 4 m/S 751 mmHg 69%
    04:00 +7°C° 0 mm 5 m/S 751 mmHg 70%
    05:00 +8°C° 0 mm 7 m/S 750 mmHg 67%
    06:00 +8°C° 0 mm 9 m/S 749 mmHg 63%
    07:00 +9°C° 0 mm 11 m/S 748 mmHg 60%
    08:00 +11°C° 0 mm 10 m/S 747 mmHg 55%
    09:00 +12°C° 0 mm 10 m/S 746 mmHg 51%
    10:00 +13°C° 0 mm 9 m/S 745 mmHg 46%
    11:00 +15°C° 0 mm 9 m/S 744 mmHg 42%
    12:00 +17°C° 0 mm 8 m/S 743 mmHg 38%
    13:00 +18°C° 0 mm 7 m/S 742 mmHg 34%
    14:00 +17°C° 0.1 mm 8 m/S 742 mmHg 36%
    15:00 +16°C° 0.1 mm 8 m/S 741 mmHg 38%
    16:00 +15°C° 0.1 mm 9 m/S 741 mmHg 41%
    17:00 +15°C° 0.1 mm 9 m/S 741 mmHg 39%
    18:00 +13°C° 0.1 mm 9 m/S 741 mmHg 38%
    19:00 +13°C° 0.1 mm 9 m/S 742 mmHg 37%
    20:00 +11°C° 0 mm 9 m/S 742 mmHg 42%
    21:00 +10°C° 0 mm 9 m/S 742 mmHg 47%
    22:00 +9°C° 0 mm 8 m/S 743 mmHg 52%
    23:00 +7°C° 0 mm 9 m/S 743 mmHg 53%

    22 Januar, Dienstag

    Zeit Temperatur Niederschläge Wind Luftdruck Luftfeuchtigkeit
    00:00 +7°C° 0 mm 9 m/S 743 mmHg 53%
    01:00 +6°C° 0 mm 10 m/S 743 mmHg 53%
    02:00 +6°C° 0 mm 11 m/S 744 mmHg 57%
    03:00 +6°C° 0 mm 11 m/S 744 mmHg 61%
    04:00 +6°C° 0 mm 11 m/S 744 mmHg 64%
    05:00 +5°C° 0 mm 12 m/S 745 mmHg 60%
    06:00 +7°C° 0 mm 13 m/S 746 mmHg 55%
    07:00 +6°C° 0 mm 14 m/S 746 mmHg 51%
    08:00 +8°C° 0.2 mm 14 m/S 747 mmHg 50%
    09:00 +8°C° 0.2 mm 15 m/S 747 mmHg 48%
    10:00 +9°C° 0.2 mm 15 m/S 748 mmHg 47%
    11:00 +9°C° 0.1 mm 15 m/S 748 mmHg 43%
    12:00 +9°C° 0.1 mm 15 m/S 749 mmHg 40%
    13:00 +10°C° 0.1 mm 15 m/S 749 mmHg 36%
    14:00 +9°C° 0 mm 15 m/S 750 mmHg 38%
    15:00 +9°C° 0 mm 15 m/S 750 mmHg 40%
    16:00 +8°C° 0 mm 14 m/S 750 mmHg 42%
    17:00 +8°C° 0 mm 14 m/S 751 mmHg 44%
    18:00 +8°C° 0 mm 13 m/S 752 mmHg 45%
    19:00 +7°C° 0 mm 12 m/S 752 mmHg 47%
    20:00 +7°C° 0 mm 10 m/S 752 mmHg 51%
    21:00 +7°C° 0 mm 9 m/S 753 mmHg 56%
    22:00 +6°C° 0 mm 7 m/S 753 mmHg 60%
    23:00 +7°C° 0.1 mm 6 m/S 752 mmHg 60%

    23 Januar, Mittwoch

    Zeit Temperatur Niederschläge Wind Luftdruck Luftfeuchtigkeit
    00:00 +7°C° 0.1 mm 5 m/S 752 mmHg 60%
    01:00 +8°C° 0.1 mm 3 m/S 752 mmHg 61%
    02:00 +7°C° 0.1 mm 4 m/S 752 mmHg 60%
    03:00 +7°C° 0.1 mm 6 m/S 751 mmHg 59%
    04:00 +6°C° 0.1 mm 7 m/S 751 mmHg 58%
    05:00 +7°C° 0 mm 8 m/S 750 mmHg 55%
    06:00 +8°C° 0 mm 10 m/S 749 mmHg 52%
    07:00 +9°C° 0 mm 12 m/S 748 mmHg 49%
    08:00 +12°C° 0 mm 11 m/S 747 mmHg 47%
    09:00 +13°C° 0 mm 11 m/S 746 mmHg 45%
    10:00 +14°C° 0 mm 10 m/S 744 mmHg 42%
    11:00 +17°C° 0 mm 10 m/S 743 mmHg 39%
    12:00 +19°C° 0 mm 9 m/S 742 mmHg 35%
    13:00 +22°C° 0 mm 9 m/S 741 mmHg 31%
    14:00 +23°C° 0 mm 11 m/S 739 mmHg 31%
    15:00 +23°C° 0 mm 13 m/S 738 mmHg 31%
    16:00 +23°C° 0 mm 16 m/S 737 mmHg 31%
    17:00 +19°C° 0.2 mm 13 m/S 737 mmHg 44%
    18:00 +16°C° 0.2 mm 10 m/S 737 mmHg 58%
    19:00 +12°C° 0.2 mm 8 m/S 736 mmHg 71%
    20:00 +12°C° 0.3 mm 7 m/S 736 mmHg 67%
    21:00 +11°C° 0.3 mm 6 m/S 737 mmHg 63%
    22:00 +12°C° 0.3 mm 5 m/S 737 mmHg 59%
    23:00 +11°C° 0 mm 4 m/S 736 mmHg 59%
    Mehr zeigen